Location: Ballard
(38.3614°N, 94.1431°W)
Time: 17:47:55
(UTC-05:00)

Hubble Space Telescope - Pass Details

Date: 27 March 2019
Orbit: 537 x 540 km, 28.5° (Epoch: 17 April)

Event Time Altitude Azimuth Distance (km) Brightness Sun altitude
Rises 21:03:52 0° 243° (WSW) 2,673 5.0 -17.9°
Reaches altitude 10° 21:06:33 10° 226° (SW) 1,783 3.8 -18.3°
Maximum altitude 21:09:38 20° 178° (S) 1,256 2.4 -18.9°
Enters shadow 21:09:43 20° 176° (S) 1,256 2.4 -18.9°
